Miscellaneous Local Product
Issued by NWS North Platte, NE

Home | Current Version | Previous Version | Text Only | Print | Product List | Glossary On
Versions: 1 2 3 4 5 6 7 8 9 10 11 12 13 14 15 16 17 18 19 20 21 22 23 24 25 26 27 28 29 30 31 32 33 34 35 36 37 38 39 40 41 42 43 44 45 46 47 48 49 50
000
AXUS43 KLBF 110910
MISLBF


WESTERN AND NORTH CENTRAL NEBRASKA HOURLY WEATHER ROUNDUP
NATIONAL WEATHER SERVICE NORTH PLATTE NE
400 AM CDT FRI JUL 11 2014

***STATIONS NOT REPORTING VARIABLES SUCH AS SKY/WEATHER OR
PRESSURE ARE PROVIDED BY THE NEBRASKA DEPARTMENT OF
ROADS...RAWS...AND APRS NETWORKS...AND ARE NOT UNDER
NATIONAL WEATHER SERVICE QUALITY CONTROL***

...OBSERVATIONS IN AND NEAR THE EASTERN PANHANDLE OF NEBRASKA...

CITY           SKY/WX    TMP DP  RH WIND       PRES   REMARKS
PINE RIDGE     CLOUDY    65  63  93 SW3       29.95F
CHADRON        CLOUDY    67  64  90 W3        29.95F
ALLIANCE       CLOUDY    65  62  90 S13       29.99S
SIDNEY         CLOUDY    65  59  81 SE6       30.03F
WHITECLAY        N/A     65  62  90 CALM        N/A
RUSHVILLE        N/A     67  65  93 W8          N/A
GORDON           N/A     70  65  85 N7          N/A
CRESCENT LAKE    N/A     68  64  86 N12G22      N/A
LISCO            N/A     70  65  82 CALM        N/A
BIG SPRINGS      N/A     67  64  90 E8          N/A
$$

...OBSERVATIONS IN NORTH CENTRAL NEBRASKA...

CITY           SKY/WX    TMP DP  RH WIND       PRES   REMARKS
VALENTINE      CLOUDY    70  63  78 SW6       29.93S
THEDFORD       CLOUDY    71  63  77 SW10G18   29.97F
AINSWORTH      CLOUDY    73  65  76 SW14      29.93F
O`NEILL        RAIN      71  65  80 S10       29.96R
ORD            LGT RAIN  69  67  93 S10       29.98R FOG
BROKEN BOW     TSTM      71  69  93 SW3       29.98F FOG
BROWNLEE         N/A     75  61  61 S18         N/A
SPRINGVIEW       N/A     74  68  81 CALM        N/A
ROSE             N/A     75  74  96 S12         N/A
NEWPORT          N/A     73  71  93 S10         N/A
SARGENT          N/A     70  68  95 CALM        N/A
COMSTOCK         N/A     74  73  93 E5          N/A
CHAMBERS         N/A     70  67  90 S3G12       N/A
$$

...OBSERVATIONS IN SOUTHWEST NEBRASKA AND FAR NORTHEAST COLORADO...

CITY           SKY/WX    TMP DP  RH WIND       PRES   REMARKS
WRAY           FAIR      73  62  70 NE8       29.98R
HOLYOKE        FAIR      68  63  83 E16G22    29.98F
IMPERIAL       CLOUDY    72  67  84 E12       29.97S
OGALLALA       CLOUDY    66  63  89 E12       29.97F
NORTH PLATTE   CLOUDY    68  64  87 SE3       29.99F
MCCOOK         MOCLDY    71  69  93 N13       29.96R
LEXINGTON      CLOUDY    73  69  88 N5        30.02R THUNDER
PAXTON           N/A     67  63  88 NE7         N/A
SUTHERLAND       N/A     66  64  93 E3          N/A
BRADY            N/A     71  64  78 CALM        N/A
GOTHENBURG       N/A     73  65  76 NW8         N/A
CALLAWAY         N/A     71  69  95 W12         N/A
$$

...NORTH PLATTE AREA...

CITY           SKY/WX    TMP DP  RH WIND       PRES   REMARKS
AIRPORT        CLOUDY    68  64  87 SE3       29.99F
INDIAN HILLS     N/A     68  64  88 CALM        N/A
$$

...SOME WEATHER OBSERVATIONS FROM AROUND THE REGION...

CITY           SKY/WX    TMP DP  RH WIND       PRES   REMARKS
DENVER         MOCLDY    67  55  65 N7        30.11S
LARAMIE        PTCLDY    56  53  90 SW13      30.23F
CHEYENNE       MOCLDY    62  56  80 W5        30.15S
SCOTTSBLUFF    CLOUDY    66  63  90 NW3       30.02R
RAPID CITY     MOCLDY    67  62  84 CALM      29.92S
PIERRE         CLEAR     68  67  96 CALM      29.82R
WINNER         FAIR      74  63  68 S15       29.91R
SIOUX FALLS    LGT RAIN  70  67  90 S18G25    29.91F
OMAHA          MOCLDY    72  64  76 S12       29.99S
GRAND ISLAND   MOCLDY    70  64  81 S9        29.96R
KANSAS CITY    PTCLDY    69  64  84 S9        30.04F
WICHITA        PTCLDY    69  66  90 S13       29.98S
HAYS           CLEAR    N/A N/A N/A S8        29.94R
LIBERAL        CLEAR     72  48  43 S8        30.02R
GOODLAND       PTCLDY    69  55  60 S13       29.96S
$$



USA.gov is the U.S. government's official web portal to all federal, state and local government web resources and services.